Weather History for KAXA - January, 2013

Change the Weather History Date:

Tuesday, January 1, 2013

  Actual Average Record
Temperature  
Mean Temperature 3 °F -  
Max Temperature 15 °F 25 °F 44 °F (1998)
Min Temperature -9 °F 11 °F -9 °F (2013)
Degree Days  
Heating Degree Days 62    
Moisture  
Dew Point -1 °F    
Average Humidity 78    
Maximum Humidity 92    
Minimum Humidity 67    
Precipitation  
Precipitation 0.00 in - - ()
Sea Level Pressure  
Sea Level Pressure 30.18 in    
Wind  
Wind Speed 7 mph (SW)    
Max Wind Speed 14 mph    
Max Gust Speed -    
Visibility 10 miles    
Events Snow    
Averages and records for this station are not official NWS values.
T = Trace of Precipitation, MM = Missing Value Source: NWS Daily Summary

Daily Weather History Graph

Daily Weather History Graph

Search for Another Location

Airport or City:

Trip Planner

Search our weather history database for the weather conditions in past years. The results will help you decide how hot, cold, wet, or windy it might be!

Date:

Astronomy

Jan. 01, 2013 Rise Set
Actual Time 7:48 AM CST 4:53 PM CST
Civil Twilight 7:16 AM CST 5:25 PM CST
Nautical Twilight 6:40 AM CST 6:01 PM CST
Astronomical Twilight 6:06 AM CST 6:35 PM CST
Moon 9:32 PM CST (1/1) 9:54 AM CST (1/1)
Length of Visible Light 10h 08m
Length of Day
9h 04m
Waning Gibbous, 83% of the Moon is Illuminated
Jan 1
Waning Gibbous
Jan 4
Last Quarter
Jan 11
New
Jan 18
First Quarter
Jan 26
Full

Hourly Weather History & Observations

Time (CST) Temp. Windchill Dew Point Humidity Pressure Visibility Wind Dir Wind Speed Gust Speed Precip Events Conditions
12:15 AM -4.0 °F -16.3 °F -9.4 °F 78% 30.23 in 10.0 mi NNW 5.8 mph - N/A   Clear
12:35 AM -4.0 °F -19.0 °F -9.4 °F 78% 30.22 in 10.0 mi NNW 8.1 mph - N/A   Clear
1:15 AM -4.0 °F -19.0 °F -9.4 °F 78% 30.22 in 10.0 mi NNW 8.1 mph - N/A   Clear
1:35 AM -5.8 °F -19.9 °F -11.2 °F 77% 30.22 in 10.0 mi NNW 6.9 mph - N/A   Clear
1:55 AM -5.8 °F -21.2 °F -11.2 °F 77% 30.22 in 10.0 mi NNW 8.1 mph - N/A   Clear
2:15 AM -5.8 °F -21.2 °F -11.2 °F 77% 30.23 in 10.0 mi NNW 8.1 mph - N/A   Clear
2:35 AM -5.8 °F -21.2 °F -11.2 °F 77% 30.24 in 10.0 mi NNW 8.1 mph - N/A   Clear
2:55 AM -5.8 °F -19.9 °F -11.2 °F 77% 30.24 in 10.0 mi NW 6.9 mph - N/A   Clear
3:15 AM -7.6 °F -20.6 °F -13.0 °F 77% 30.24 in 10.0 mi NW 5.8 mph - N/A   Clear
3:35 AM -7.6 °F -20.6 °F -13.0 °F 77% 30.24 in 10.0 mi WNW 5.8 mph - N/A   Clear
3:55 AM -9.4 °F - -14.8 °F 77% 30.24 in 10.0 mi Calm Calm - N/A   Clear
4:15 AM -5.8 °F -14.5 °F -11.2 °F 77% 30.24 in 10.0 mi NW 3.5 mph - N/A   Clear
4:35 AM -7.6 °F -22.1 °F -13.0 °F 77% 30.23 in 10.0 mi NW 6.9 mph - N/A   Clear
4:55 AM -5.8 °F -19.9 °F -11.2 °F 77% 30.24 in 10.0 mi NW 6.9 mph - N/A   Clear
5:15 AM -7.6 °F - -13.0 °F 77% 30.24 in 10.0 mi Calm Calm - N/A   Clear
5:35 AM -7.6 °F - -13.0 °F 77% 30.23 in 10.0 mi Calm Calm - N/A   Clear
5:55 AM -5.8 °F - -11.2 °F 77% 30.22 in 10.0 mi Calm Calm - N/A   Clear
6:15 AM -7.6 °F - -13.0 °F 77% 30.22 in 10.0 mi Calm Calm - N/A   Clear
6:35 AM -5.8 °F -18.4 °F -11.2 °F 77% 30.22 in 10.0 mi North 5.8 mph - N/A   Mostly Cloudy
6:55 AM -5.8 °F -14.5 °F -11.2 °F 77% 30.23 in 10.0 mi NW 3.5 mph - N/A   Overcast
7:15 AM -4.0 °F - -9.4 °F 78% 30.23 in 10.0 mi Calm Calm - N/A   Overcast
7:35 AM -4.0 °F - -9.4 °F 78% 30.23 in 10.0 mi Calm Calm - N/A   Overcast
7:55 AM -2.2 °F - -5.8 °F 85% 30.22 in 10.0 mi Calm Calm - N/A   Overcast
8:15 AM -0.4 °F - -5.8 °F 78% 30.22 in 10.0 mi Calm Calm - N/A   Overcast
8:35 AM 1.4 °F - -4.0 °F 78% 30.22 in 10.0 mi Calm Calm - N/A   Overcast
9:15 AM 3.2 °F - -2.2 °F 78% 30.23 in 10.0 mi Calm Calm - N/A   Overcast
9:35 AM 5.0 °F - -2.2 °F 72% 30.23 in 10.0 mi Calm Calm - N/A   Overcast
9:55 AM 5.0 °F - -0.4 °F 78% 30.23 in 10.0 mi Calm Calm - N/A   Overcast
10:15 AM 5.0 °F -4.1 °F -0.4 °F 78% 30.24 in 10.0 mi SSW 4.6 mph - N/A   Overcast
10:35 AM 5.0 °F -6.9 °F -0.4 °F 78% 30.24 in 10.0 mi SSW 6.9 mph - N/A Snow Light Snow
10:55 AM 6.8 °F -6.9 °F -0.4 °F 72% 30.24 in 10.0 mi SSW 9.2 mph - N/A Snow Light Snow
11:15 AM 6.8 °F -7.8 °F 1.4 °F 79% 30.23 in 10.0 mi SSW 10.4 mph - N/A   Overcast
11:35 AM 8.6 °F -6.3 °F 1.4 °F 73% 30.23 in 10.0 mi SSW 11.5 mph - N/A Snow Light Snow
11:55 AM 8.6 °F -7.0 °F 1.4 °F 73% 30.22 in 10.0 mi SSW 12.7 mph - N/A Snow Light Snow
12:15 PM 8.6 °F -6.3 °F 3.2 °F 79% 30.21 in 10.0 mi SSW 11.5 mph - N/A Snow Light Snow
12:35 PM 10.4 °F -3.3 °F 3.2 °F 73% 30.20 in 10.0 mi SSW 10.4 mph - N/A   Overcast
12:55 PM 10.4 °F -4.1 °F 3.2 °F 73% 30.19 in 10.0 mi SSW 11.5 mph - N/A Snow Light Snow
1:15 PM 12.2 °F -1.8 °F 3.2 °F 67% 30.19 in 10.0 mi SSW 11.5 mph - N/A Snow Light Snow
1:35 PM 12.2 °F -1.0 °F 3.2 °F 67% 30.18 in 10.0 mi SW 10.4 mph - N/A   Overcast
1:55 PM 12.2 °F -0.2 °F 5.0 °F 73% 30.17 in 10.0 mi SW 9.2 mph - N/A   Overcast
2:15 PM 12.2 °F -1.8 °F 5.0 °F 73% 30.17 in 10.0 mi SW 11.5 mph - N/A   Overcast
2:35 PM 14.0 °F 0.5 °F 6.8 °F 73% 30.17 in 10.0 mi SW 11.5 mph - N/A Snow Light Snow
2:55 PM 14.0 °F 2.0 °F 6.8 °F 73% 30.17 in 10.0 mi SW 9.2 mph - N/A   Overcast
3:15 PM 14.0 °F 2.0 °F 8.6 °F 79% 30.16 in 10.0 mi SSW 9.2 mph - N/A   Overcast
3:35 PM 14.0 °F 2.0 °F 8.6 °F 79% 30.16 in 10.0 mi SSW 9.2 mph - N/A   Overcast
4:15 PM 15.8 °F 4.2 °F 10.4 °F 79% 30.15 in 10.0 mi SSW 9.2 mph - N/A   Overcast
4:35 PM 15.8 °F 4.2 °F 10.4 °F 79% 30.15 in 10.0 mi SSW 9.2 mph - N/A   Overcast
4:55 PM 15.8 °F 4.2 °F 10.4 °F 79% 30.14 in 9.0 mi SSW 9.2 mph - N/A   Overcast
5:15 PM 15.8 °F 2.7 °F 10.4 °F 79% 30.14 in 10.0 mi SSW 11.5 mph - N/A   Overcast
5:35 PM 15.8 °F 4.2 °F 12.2 °F 86% 30.13 in 10.0 mi SSW 9.2 mph - N/A Snow Light Snow
5:55 PM 15.8 °F 4.2 °F 12.2 °F 86% 30.13 in 10.0 mi SSW 9.2 mph - N/A   Overcast
6:15 PM 15.8 °F 4.2 °F 12.2 °F 86% 30.12 in 10.0 mi SSW 9.2 mph - N/A   Overcast
6:35 PM 14.0 °F 2.0 °F 10.4 °F 86% 30.12 in 10.0 mi SSW 9.2 mph - N/A   Overcast
6:55 PM 14.0 °F 2.9 °F 8.6 °F 79% 30.12 in 10.0 mi SSW 8.1 mph - N/A   Overcast
7:15 PM 12.2 °F -0.2 °F 8.6 °F 85% 30.11 in 10.0 mi SSW 9.2 mph - N/A   Scattered Clouds
7:35 PM 8.6 °F -3.7 °F 5.0 °F 85% 30.11 in 10.0 mi SSW 8.1 mph - N/A   Clear
7:55 PM 10.4 °F -2.4 °F 6.8 °F 85% 30.10 in 10.0 mi SSW 9.2 mph - N/A   Partly Cloudy
8:15 PM 8.6 °F -4.7 °F 3.2 °F 79% 30.10 in 10.0 mi SSW 9.2 mph - N/A   Clear
8:35 PM 6.8 °F -7.8 °F 3.2 °F 85% 30.09 in 10.0 mi South 10.4 mph - N/A Snow Light Snow
8:55 PM 6.8 °F -8.6 °F 3.2 °F 85% 30.08 in 10.0 mi South 11.5 mph - N/A Snow Light Snow
9:15 PM 6.8 °F -8.6 °F 3.2 °F 85% 30.08 in 10.0 mi South 11.5 mph - N/A   Clear
9:35 PM 6.8 °F -9.3 °F 3.2 °F 85% 30.07 in 10.0 mi SSW 12.7 mph - N/A Snow Light Snow
9:55 PM 6.8 °F -9.3 °F 1.4 °F 79% 30.07 in 10.0 mi SSW 12.7 mph - N/A Snow Light Snow
10:15 PM 5.0 °F -10.0 °F -0.4 °F 78% 30.07 in 10.0 mi SSW 10.4 mph - N/A Snow Light Snow
10:35 PM 5.0 °F -12.3 °F -0.4 °F 78% 30.07 in 10.0 mi SSW 13.8 mph - N/A   Mostly Cloudy
10:55 PM 6.8 °F -8.6 °F 1.4 °F 79% 30.05 in 10.0 mi SSW 11.5 mph - N/A   Overcast
11:15 PM 8.6 °F -5.5 °F 3.2 °F 79% 30.05 in 10.0 mi SSW 10.4 mph - N/A   Overcast
11:35 PM 10.4 °F -3.3 °F 5.0 °F 79% 30.04 in 10.0 mi SSW 10.4 mph - N/A   Overcast
11:55 PM 10.4 °F -2.4 °F 8.6 °F 92% 30.03 in 6.0 mi SSW 9.2 mph - N/A   Overcast